When you browse on this site, cookies collect data to enhance your experience and personalize the content and advertising you see.
Visit our Privacy Policy to learn more. By continuing to use the site, you agree to this use of cookies and data.
  • Em Portugal
  • Lista de países
  • Para 7 dias
  • Temperatura da água
  • Mapas de satélite
  • Mapa do tempo
  • Widgets de tempo
  • user-avatar
    Iniciar Sessão

    Previsão horária em Bolshie Stariki

    Hoje, 21 Fevereiro, Quinta-feira

    Tempo Temperatura Precipitação Vento Pressão Humidade
    00:00 -6°C° 0.1 mm 6 m/s 742 mmHg 76%
    01:00 -6°C° 0.1 mm 6 m/s 743 mmHg 74%
    02:00 -7°C° 0 mm 5 m/s 743 mmHg 75%
    03:00 -7°C° 0.1 mm 5 m/s 744 mmHg 74%
    04:00 -8°C° 0.1 mm 6 m/s 744 mmHg 73%
    05:00 -9°C° 0.1 mm 6 m/s 745 mmHg 72%
    06:00 -9°C° 0 mm 6 m/s 746 mmHg 71%
    07:00 -9°C° 0 mm 7 m/s 746 mmHg 69%
    08:00 -10°C° 0 mm 6 m/s 748 mmHg 67%
    09:00 -10°C° 0 mm 6 m/s 748 mmHg 66%
    10:00 -10°C° 0 mm 6 m/s 749 mmHg 64%
    11:00 -10°C° 0 mm 6 m/s 750 mmHg 63%
    12:00 -9°C° 0 mm 6 m/s 750 mmHg 62%
    13:00 -9°C° 0 mm 6 m/s 751 mmHg 62%
    14:00 -9°C° 0 mm 6 m/s 752 mmHg 62%
    15:00 -9°C° 0 mm 6 m/s 752 mmHg 63%
    16:00 -10°C° 0 mm 5 m/s 753 mmHg 64%
    17:00 -10°C° 0 mm 5 m/s 754 mmHg 66%
    18:00 -10°C° 0 mm 5 m/s 754 mmHg 67%
    19:00 -11°C° 0 mm 5 m/s 755 mmHg 69%
    20:00 -11°C° 0 mm 5 m/s 755 mmHg 70%
    21:00 -11°C° 0 mm 5 m/s 756 mmHg 70%
    22:00 -11°C° 0 mm 5 m/s 757 mmHg 71%
    23:00 -11°C° 0 mm 5 m/s 757 mmHg 71%

    Amanhã, 22 Fevereiro, Sexta-feira

    Tempo Temperatura Precipitação Vento Pressão Humidade
    00:00 -11°C° 0 mm 5 m/s 758 mmHg 72%
    01:00 -11°C° 0 mm 5 m/s 758 mmHg 72%
    02:00 -12°C° 0 mm 5 m/s 759 mmHg 72%
    03:00 -12°C° 0 mm 5 m/s 759 mmHg 73%
    04:00 -12°C° 0 mm 5 m/s 760 mmHg 73%
    05:00 -12°C° 0 mm 5 m/s 760 mmHg 73%
    06:00 -12°C° 0 mm 6 m/s 761 mmHg 74%
    07:00 -12°C° 0 mm 6 m/s 761 mmHg 74%
    08:00 -12°C° 0 mm 6 m/s 762 mmHg 74%
    09:00 -11°C° 0 mm 6 m/s 763 mmHg 72%
    10:00 -10°C° 0 mm 6 m/s 763 mmHg 69%
    11:00 -10°C° 0 mm 6 m/s 764 mmHg 66%
    12:00 -9°C° 0 mm 6 m/s 764 mmHg 65%
    13:00 -9°C° 0 mm 6 m/s 764 mmHg 63%
    14:00 -8°C° 0 mm 6 m/s 765 mmHg 62%
    15:00 -8°C° 0 mm 6 m/s 765 mmHg 64%
    16:00 -8°C° 0 mm 5 m/s 766 mmHg 66%
    17:00 -8°C° 0 mm 5 m/s 766 mmHg 69%
    18:00 -9°C° 0 mm 4 m/s 767 mmHg 71%
    19:00 -9°C° 0 mm 4 m/s 767 mmHg 73%
    20:00 -10°C° 0 mm 4 m/s 768 mmHg 75%
    21:00 -9°C° 0 mm 3 m/s 768 mmHg 76%
    22:00 -10°C° 0 mm 3 m/s 768 mmHg 78%
    23:00 -10°C° 0 mm 3 m/s 769 mmHg 79%

    Depois de amanhã, 23 Fevereiro, Sábado

    Tempo Temperatura Precipitação Vento Pressão Humidade
    00:00 -10°C° 0 mm 2 m/s 769 mmHg 80%
    01:00 -10°C° 0 mm 2 m/s 769 mmHg 81%
    02:00 -10°C° 0 mm 2 m/s 769 mmHg 82%
    03:00 -10°C° 0 mm 2 m/s 769 mmHg 82%
    04:00 -10°C° 0 mm 2 m/s 769 mmHg 81%
    05:00 -9°C° 0 mm 1 m/s 769 mmHg 81%
    06:00 -10°C° 0 mm 2 m/s 769 mmHg 77%
    07:00 -9°C° 0 mm 2 m/s 769 mmHg 74%
    08:00 -8°C° 0 mm 2 m/s 769 mmHg 70%
    09:00 -9°C° 0 mm 3 m/s 768 mmHg 66%
    10:00 -8°C° 0 mm 3 m/s 768 mmHg 62%
    11:00 -8°C° 0 mm 4 m/s 767 mmHg 58%
    12:00 -8°C° 0.2 mm 4 m/s 766 mmHg 66%
    13:00 -8°C° 0.2 mm 4 m/s 766 mmHg 74%
    14:00 -8°C° 0.2 mm 4 m/s 765 mmHg 82%
    15:00 -7°C° 0.6 mm 4 m/s 765 mmHg 85%
    16:00 -7°C° 0.6 mm 4 m/s 764 mmHg 87%
    17:00 -7°C° 0.6 mm 5 m/s 763 mmHg 89%
    18:00 -5°C° 0.1 mm 4 m/s 763 mmHg 88%
    19:00 -5°C° 0.1 mm 4 m/s 763 mmHg 88%
    20:00 -4°C° 0.1 mm 4 m/s 762 mmHg 87%
    21:00 -4°C° 0.1 mm 4 m/s 762 mmHg 88%
    22:00 -3°C° 0.1 mm 4 m/s 762 mmHg 89%
    23:00 -3°C° 0.1 mm 4 m/s 762 mmHg 90%

    24 Fevereiro, Domingo

    Tempo Temperatura Precipitação Vento Pressão Humidade
    00:00 -2°C° 0.1 mm 4 m/s 762 mmHg 91%
    01:00 -2°C° 0.1 mm 4 m/s 761 mmHg 92%
    02:00 -2°C° 0.1 mm 4 m/s 761 mmHg 92%
    03:00 -2°C° 0 mm 4 m/s 761 mmHg 93%
    04:00 -2°C° 0 mm 4 m/s 761 mmHg 93%
    05:00 -2°C° 0 mm 4 m/s 761 mmHg 93%
    06:00 -1°C° 0 mm 3 m/s 761 mmHg 94%
    07:00 0°C° 0 mm 3 m/s 761 mmHg 94%
    08:00 0°C° 0 mm 3 m/s 761 mmHg 94%
    09:00 0°C° 0 mm 3 m/s 761 mmHg 94%
    10:00 +1°C° 0 mm 3 m/s 761 mmHg 93%
    11:00 +1°C° 0 mm 3 m/s 761 mmHg 93%
    12:00 +1°C° 0 mm 3 m/s 761 mmHg 93%
    13:00 +2°C° 0 mm 3 m/s 761 mmHg 93%
    14:00 +2°C° 0 mm 3 m/s 760 mmHg 93%
    15:00 +2°C° 0 mm 3 m/s 760 mmHg 94%
    16:00 +1°C° 0 mm 3 m/s 760 mmHg 95%
    17:00 +1°C° 0 mm 3 m/s 760 mmHg 95%
    18:00 +1°C° 0 mm 3 m/s 759 mmHg 95%
    19:00 +1°C° 0 mm 3 m/s 759 mmHg 95%
    20:00 +1°C° 0 mm 3 m/s 759 mmHg 95%
    21:00 +1°C° 0 mm 3 m/s 759 mmHg 95%
    22:00 +1°C° 0 mm 3 m/s 758 mmHg 94%
    23:00 +1°C° 0 mm 3 m/s 758 mmHg 94%

    25 Fevereiro, Segunda-feira

    Tempo Temperatura Precipitação Vento Pressão Humidade
    00:00 0°C° 0 mm 4 m/s 758 mmHg 94%
    01:00 0°C° 0 mm 4 m/s 758 mmHg 94%
    02:00 0°C° 0 mm 4 m/s 758 mmHg 94%
    03:00 0°C° 0 mm 4 m/s 758 mmHg 94%
    04:00 0°C° 0 mm 4 m/s 757 mmHg 93%
    05:00 0°C° 0 mm 4 m/s 757 mmHg 93%
    06:00 0°C° 0 mm 4 m/s 757 mmHg 91%
    07:00 -1°C° 0 mm 4 m/s 758 mmHg 90%
    08:00 -1°C° 0 mm 4 m/s 758 mmHg 88%
    09:00 -1°C° 0 mm 4 m/s 758 mmHg 86%
    10:00 0°C° 0 mm 4 m/s 757 mmHg 84%
    11:00 0°C° 0 mm 5 m/s 757 mmHg 82%
    12:00 0°C° 0 mm 5 m/s 757 mmHg 79%
    13:00 +1°C° 0 mm 6 m/s 756 mmHg 76%
    14:00 +1°C° 0 mm 6 m/s 756 mmHg 73%
    15:00 +1°C° 0 mm 5 m/s 756 mmHg 75%
    16:00 0°C° 0 mm 5 m/s 756 mmHg 76%
    17:00 0°C° 0 mm 4 m/s 756 mmHg 78%
    18:00 -1°C° 0 mm 4 m/s 755 mmHg 80%
    19:00 -1°C° 0 mm 4 m/s 755 mmHg 82%
    20:00 -2°C° 0 mm 4 m/s 755 mmHg 84%
    21:00 -2°C° 0 mm 4 m/s 755 mmHg 85%
    22:00 -2°C° 0 mm 4 m/s 755 mmHg 87%
    23:00 -2°C° 0 mm 4 m/s 755 mmHg 89%

    26 Fevereiro, Terça-feira

    Tempo Temperatura Precipitação Vento Pressão Humidade
    00:00 -3°C° 0 mm 4 m/s 755 mmHg 90%
    01:00 -2°C° 0 mm 3 m/s 754 mmHg 91%
    02:00 -2°C° 0 mm 3 m/s 754 mmHg 92%
    03:00 -2°C° 0 mm 3 m/s 753 mmHg 91%
    04:00 -2°C° 0 mm 3 m/s 753 mmHg 91%
    05:00 -2°C° 0 mm 3 m/s 752 mmHg 91%
    06:00 -2°C° 0 mm 3 m/s 751 mmHg 91%
    07:00 -2°C° 0 mm 3 m/s 751 mmHg 91%
    08:00 -2°C° 0 mm 3 m/s 750 mmHg 91%
    09:00 -2°C° 0.3 mm 3 m/s 749 mmHg 91%
    10:00 -1°C° 0.3 mm 3 m/s 748 mmHg 91%
    11:00 -1°C° 0.3 mm 2 m/s 747 mmHg 91%
    12:00 -1°C° 0.5 mm 2 m/s 746 mmHg 90%
    13:00 +1°C° 0.5 mm 2 m/s 745 mmHg 90%
    14:00 +1°C° 0.5 mm 2 m/s 744 mmHg 89%
    15:00 +1°C° 0.2 mm 2 m/s 745 mmHg 90%
    16:00 +1°C° 0.2 mm 2 m/s 745 mmHg 91%
    17:00 +1°C° 0.2 mm 2 m/s 745 mmHg 93%
    18:00 0°C° 0 mm 3 m/s 746 mmHg 91%
    19:00 -2°C° 0 mm 4 m/s 747 mmHg 88%
    20:00 -2°C° 0 mm 4 m/s 748 mmHg 86%
    21:00 -2°C° 0.1 mm 4 m/s 749 mmHg 85%
    22:00 -2°C° 0.1 mm 4 m/s 751 mmHg 84%
    23:00 -3°C° 0.1 mm 4 m/s 752 mmHg 82%
    Mostrar mais